Radiation Dose at Monitoring Post of Fukushima Daini Nuclear Power Station
Date,Time,MP-1(microSv/h),MP-2(microSv/h),MP-3(microSv/h),MP-4(microSv/h),MP-5(microSv/h),MP-6(microSv/h),MP-7(microSv/h),Wind Direction,Wind Velocity(m/s),Rain
2022/11/02,00:00,0.156,0.140,0.224,0.215,0.215,0.124,0.079,south,3.6,Yes
2022/11/02,00:10,0.155,0.142,0.225,0.216,0.217,0.124,0.080,south-southeast,4.4,Yes
2022/11/02,00:20,0.155,0.141,0.224,0.215,0.216,0.124,0.080,south,3.4,Yes
2022/11/02,00:30,0.156,0.142,0.224,0.216,0.217,0.124,0.080,west-southwest,1.8,Yes
2022/11/02,00:40,0.156,0.140,0.225,0.216,0.216,0.123,0.080,south,3.6,No
2022/11/02,00:50,0.155,0.139,0.223,0.213,0.215,0.124,0.079,south,4.5,No
2022/11/02,01:00,0.157,0.140,0.224,0.215,0.216,0.124,0.079,south,4.2,Yes
2022/11/02,01:10,0.155,0.140,0.222,0.213,0.214,0.124,0.079,southwest,3.3,Yes
2022/11/02,01:20,0.157,0.141,0.222,0.214,0.216,0.123,0.079,west-southwest,3.3,Yes
2022/11/02,01:30,0.156,0.141,0.223,0.214,0.214,0.122,0.079,west-southwest,2.7,Yes
2022/11/02,01:40,0.155,0.140,0.223,0.214,0.215,0.123,0.079,southwest,2.6,No
2022/11/02,01:50,0.155,0.139,0.224,0.215,0.215,0.122,0.079,west-southwest,2.1,No
2022/11/02,02:00,0.156,0.141,0.223,0.213,0.215,0.124,0.078,west,2.4,Yes
2022/11/02,02:10,0.155,0.141,0.223,0.215,0.216,0.122,0.078,west-northwest,1.8,Yes
2022/11/02,02:20,0.155,0.140,0.222,0.213,0.215,0.122,0.078,west,1.5,No
2022/11/02,02:30,0.155,0.140,0.223,0.214,0.216,0.123,0.078,west-southwest,1.8,No
2022/11/02,02:40,0.155,0.140,0.223,0.214,0.214,0.123,0.078,west,0.9,No
2022/11/02,02:50,0.155,0.140,0.223,0.213,0.217,0.123,0.078,-,CALM,No
2022/11/02,03:00,0.155,0.140,0.223,0.214,0.214,0.122,0.078,east-southeast,0.7,No
2022/11/02,03:10,0.156,0.140,0.222,0.214,0.215,0.123,0.079,-,CALM,No
2022/11/02,03:20,0.155,0.140,0.222,0.213,0.216,0.123,0.079,north-northwest,0.6,No
2022/11/02,03:30,0.156,0.140,0.222,0.214,0.214,0.123,0.079,-,CALM,No
2022/11/02,03:40,0.156,0.139,0.224,0.213,0.215,0.123,0.079,east,0.9,No
2022/11/02,03:50,0.155,0.140,0.223,0.213,0.214,0.123,0.078,-,CALM,No
2022/11/02,04:00,0.155,0.140,0.222,0.214,0.216,0.123,0.079,northeast,0.7,No
2022/11/02,04:10,0.156,0.141,0.221,0.213,0.215,0.122,0.079,north-northeast,0.8,No
2022/11/02,04:20,0.155,0.140,0.223,0.214,0.214,0.123,0.078,north-northeast,1.5,No
2022/11/02,04:30,0.156,0.140,0.223,0.214,0.215,0.122,0.079,north-northeast,1.1,No
2022/11/02,04:40,0.156,0.140,0.221,0.214,0.214,0.124,0.078,north,1.2,No
2022/11/02,04:50,0.154,0.140,0.222,0.214,0.215,0.123,0.079,north-northwest,1.3,No
2022/11/02,05:00,0.155,0.140,0.222,0.214,0.215,0.122,0.078,north-northwest,1.6,No
2022/11/02,05:10,0.154,0.140,0.223,0.215,0.215,0.123,0.078,north-northwest,1.5,No
2022/11/02,05:20,0.155,0.140,0.223,0.214,0.216,0.122,0.078,northwest,2.0,No
2022/11/02,05:30,0.155,0.139,0.223,0.213,0.214,0.123,0.078,west-northwest,1.2,No
2022/11/02,05:40,0.154,0.141,0.222,0.213,0.214,0.123,0.078,west,0.7,No
2022/11/02,05:50,0.156,0.140,0.222,0.213,0.214,0.122,0.079,northwest,1.5,No
2022/11/02,06:00,0.155,0.140,0.223,0.213,0.214,0.123,0.078,northwest,2.6,No
2022/11/02,06:10,0.155,0.140,0.222,0.213,0.215,0.123,0.078,northwest,2.7,No
2022/11/02,06:20,0.155,0.140,0.222,0.214,0.213,0.122,0.078,north-northwest,2.5,No
2022/11/02,06:30,0.156,0.140,0.222,0.213,0.214,0.123,0.078,north-northwest,1.7,No
2022/11/02,06:40,0.155,0.139,0.223,0.213,0.215,0.123,0.078,northwest,2.1,No
2022/11/02,06:50,0.155,0.140,0.222,0.213,0.215,0.122,0.078,northwest,2.1,No
2022/11/02,07:00,0.155,0.139,0.222,0.215,0.215,0.122,0.078,northwest,1.8,No
2022/11/02,07:10,0.155,0.140,0.223,0.213,0.214,0.122,0.078,northwest,1.2,No
2022/11/02,07:20,0.154,0.140,0.222,0.213,0.214,0.123,0.077,north-northwest,1.1,No
2022/11/02,07:30,0.155,0.139,0.222,0.213,0.215,0.123,0.078,north-northwest,1.1,No
2022/11/02,07:40,0.156,0.140,0.223,0.212,0.214,0.121,0.078,north-northwest,1.1,No
2022/11/02,07:50,0.154,0.140,0.222,0.212,0.215,0.122,0.078,north-northeast,2.7,No
2022/11/02,08:00,0.156,0.139,0.222,0.212,0.214,0.122,0.078,north-northeast,0.6,No
2022/11/02,08:10,0.156,0.140,0.224,0.213,0.216,0.124,0.078,north-northwest,1.0,No
2022/11/02,08:20,0.155,0.141,0.222,0.212,0.213,0.121,0.079,northwest,0.7,No
2022/11/02,08:30,0.155,0.139,0.221,0.213,0.215,0.121,0.078,west,1.0,No
2022/11/02,08:40,0.155,0.139,0.222,0.213,0.214,0.122,0.078,west-southwest,0.8,No
2022/11/02,08:50,0.155,0.140,0.221,0.210,0.214,0.123,0.078,southwest,0.9,No
2022/11/02,09:00,0.155,0.140,0.223,0.213,0.214,0.122,0.079,-,CALM,No
2022/11/02,09:10,0.155,0.140,0.221,0.212,0.216,0.122,0.078,-,CALM,No
2022/11/02,09:20,0.154,0.140,0.223,0.211,0.213,0.122,0.077,south-southeast,1.6,No
2022/11/02,09:30,0.155,0.140,0.222,0.213,0.212,0.122,0.078,south-southeast,1.4,No
2022/11/02,09:40,0.154,0.139,0.222,0.214,0.215,0.122,0.078,south,1.7,No
2022/11/02,09:50,0.153,0.141,0.222,0.211,0.214,0.122,0.079,southeast,0.9,No
2022/11/02,10:00,0.152,0.139,0.221,0.213,0.213,0.122,0.078,southeast,1.5,No
2022/11/02,10:10,0.155,0.139,0.221,0.215,0.211,0.122,0.077,southeast,1.2,No
2022/11/02,10:20,0.155,0.140,0.222,0.212,0.214,0.121,0.077,southeast,1.9,No
2022/11/02,10:30,0.153,0.139,0.221,0.210,0.214,0.122,0.078,southeast,1.8,No
2022/11/02,10:40,0.152,0.139,0.219,0.214,0.213,0.122,0.077,east-southeast,1.7,No
2022/11/02,10:50,0.152,0.140,0.219,0.213,0.212,0.123,0.079,east-southeast,1.6,No
2022/11/02,11:00,0.153,0.140,0.222,0.213,0.211,0.122,0.079,east-southeast,1.2,No
2022/11/02,11:10,0.153,0.139,0.221,0.212,0.215,0.123,0.077,east-southeast,0.9,No
2022/11/02,11:20,0.152,0.139,0.221,0.212,0.215,0.122,0.078,east-southeast,1.3,No
2022/11/02,11:30,0.152,0.141,0.220,0.214,0.215,0.123,0.078,east-southeast,1.0,No
2022/11/02,11:40,0.153,0.141,0.222,0.213,0.213,0.123,0.079,southeast,2.0,No
2022/11/02,11:50,0.151,0.139,0.224,0.212,0.212,0.123,0.078,southeast,1.4,No
2022/11/02,12:00,0.154,0.139,0.222,0.211,0.212,0.122,0.077,southeast,1.5,No
2022/11/02,12:10,0.154,0.137,0.222,0.214,0.212,0.122,0.077,east-southeast,1.9,No
2022/11/02,12:20,0.153,0.139,0.220,0.215,0.212,0.123,0.078,east-southeast,1.7,No
2022/11/02,12:30,0.155,0.140,0.223,0.213,0.216,0.122,0.078,east-southeast,1.7,No
2022/11/02,12:40,0.153,0.140,0.224,0.212,0.215,0.123,0.078,east,1.5,No
2022/11/02,12:50,0.153,0.139,0.222,0.212,0.214,0.123,0.078,east-southeast,1.7,No
2022/11/02,13:00,0.154,0.139,0.221,0.213,0.213,0.122,0.078,east-southeast,1.6,No
2022/11/02,13:10,0.153,0.138,0.220,0.216,0.212,0.122,0.078,east,1.6,No
2022/11/02,13:20,0.154,0.140,0.221,0.213,0.211,0.122,0.078,east,1.6,No
2022/11/02,13:30,0.154,0.141,0.223,0.213,0.211,0.123,0.078,east,1.8,No
2022/11/02,13:40,0.153,0.140,0.222,0.211,0.216,0.122,0.078,east,1.9,No
2022/11/02,13:50,0.153,0.139,0.221,0.211,0.215,0.123,0.078,east,1.9,No
2022/11/02,14:00,0.156,0.139,0.223,0.214,0.213,0.122,0.078,east,1.6,No
2022/11/02,14:10,0.156,0.141,0.223,0.214,0.213,0.123,0.079,east-southeast,1.4,No
2022/11/02,14:20,0.155,0.139,0.224,0.212,0.215,0.122,0.078,east,1.4,No
2022/11/02,14:30,0.156,0.138,0.223,0.215,0.215,0.122,0.077,east-southeast,1.7,No
2022/11/02,14:40,0.155,0.140,0.222,0.214,0.214,0.123,0.078,east,1.2,No
2022/11/02,14:50,0.154,0.139,0.223,0.214,0.216,0.123,0.078,-,CALM,No
2022/11/02,15:00,0.156,0.140,0.222,0.215,0.213,0.122,0.078,northeast,0.9,No
2022/11/02,15:10,0.157,0.140,0.223,0.213,0.216,0.122,0.079,northeast,1.0,No
2022/11/02,15:20,0.154,0.140,0.221,0.215,0.214,0.122,0.078,northeast,1.1,No
2022/11/02,15:30,0.156,0.140,0.223,0.213,0.213,0.122,0.079,-,CALM,No
2022/11/02,15:40,0.153,0.139,0.221,0.215,0.216,0.121,0.077,north,1.0,No
2022/11/02,15:50,0.156,0.141,0.222,0.214,0.214,0.123,0.079,north,1.0,No
2022/11/02,16:00,0.156,0.139,0.222,0.213,0.213,0.122,0.077,north,1.4,No
2022/11/02,16:10,0.154,0.141,0.222,0.215,0.215,0.122,0.077,north,0.9,No
2022/11/02,16:20,0.155,0.140,0.222,0.213,0.213,0.122,0.078,north,0.7,No
2022/11/02,16:30,0.154,0.140,0.223,0.214,0.215,0.122,0.078,-,CALM,No
2022/11/02,16:40,0.158,0.140,0.223,0.213,0.214,0.122,0.078,-,CALM,No
2022/11/02,16:50,0.155,0.139,0.223,0.214,0.215,0.122,0.078,-,CALM,No
2022/11/02,17:00,0.155,0.140,0.222,0.214,0.215,0.123,0.077,-,CALM,No
2022/11/02,17:10,0.154,0.140,0.224,0.215,0.213,0.122,0.078,-,CALM,No
2022/11/02,17:20,0.155,0.140,0.223,0.214,0.215,0.122,0.079,north-northeast,0.8,No
2022/11/02,17:30,0.154,0.139,0.224,0.216,0.214,0.123,0.079,north,0.8,No
2022/11/02,17:40,0.155,0.141,0.222,0.214,0.216,0.122,0.078,north-northwest,1.0,No
2022/11/02,17:50,0.154,0.141,0.224,0.215,0.215,0.123,0.079,north,1.2,No
2022/11/02,18:00,0.156,0.141,0.223,0.214,0.216,0.122,0.078,north-northwest,2.0,No
2022/11/02,18:10,0.154,0.140,0.224,0.215,0.213,0.122,0.078,north-northwest,2.3,No
2022/11/02,18:20,0.156,0.141,0.224,0.213,0.216,0.123,0.078,north-northwest,1.8,No
2022/11/02,18:30,0.155,0.140,0.223,0.215,0.214,0.123,0.079,north-northwest,2.3,No
2022/11/02,18:40,0.156,0.141,0.223,0.215,0.216,0.123,0.079,north,1.5,No
2022/11/02,18:50,0.155,0.140,0.222,0.216,0.215,0.123,0.079,northwest,1.1,No
2022/11/02,19:00,0.156,0.141,0.225,0.214,0.216,0.122,0.079,north,1.6,No
2022/11/02,19:10,0.154,0.140,0.223,0.213,0.214,0.123,0.078,northwest,0.6,No
2022/11/02,19:20,0.156,0.140,0.224,0.214,0.215,0.123,0.078,north,1.3,No
2022/11/02,19:30,0.155,0.141,0.223,0.214,0.214,0.124,0.078,northwest,0.8,No
2022/11/02,19:40,0.157,0.141,0.224,0.214,0.216,0.122,0.078,northwest,0.8,No
2022/11/02,19:50,0.155,0.140,0.224,0.214,0.214,0.122,0.078,northwest,0.8,No
2022/11/02,20:00,0.156,0.139,0.222,0.214,0.216,0.123,0.078,-,CALM,No
2022/11/02,20:10,0.155,0.140,0.224,0.214,0.214,0.122,0.079,-,CALM,No
2022/11/02,20:20,0.156,0.141,0.224,0.214,0.216,0.122,0.079,-,CALM,No
2022/11/02,20:30,0.155,0.140,0.224,0.214,0.215,0.122,0.079,-,CALM,No
2022/11/02,20:40,0.155,0.140,0.223,0.214,0.215,0.123,0.079,-,CALM,No
2022/11/02,20:50,0.155,0.140,0.224,0.214,0.215,0.123,0.079,-,CALM,No
2022/11/02,21:00,0.155,0.141,0.225,0.215,0.215,0.123,0.078,-,CALM,No
2022/11/02,21:10,0.155,0.140,0.223,0.214,0.214,0.122,0.079,-,CALM,No
2022/11/02,21:20,0.155,0.140,0.223,0.213,0.216,0.123,0.078,-,CALM,No
2022/11/02,21:30,0.155,0.140,0.223,0.213,0.213,0.123,0.078,-,CALM,No
2022/11/02,21:40,0.155,0.141,0.224,0.214,0.216,0.122,0.078,-,CALM,No
2022/11/02,21:50,0.156,0.140,0.224,0.215,0.215,0.122,0.078,-,CALM,No
2022/11/02,22:00,0.156,0.140,0.223,0.212,0.215,0.123,0.079,-,CALM,No
2022/11/02,22:10,0.155,0.141,0.223,0.213,0.215,0.122,0.079,-,CALM,No
2022/11/02,22:20,0.155,0.140,0.223,0.214,0.216,0.123,0.078,-,CALM,No
2022/11/02,22:30,0.156,0.140,0.223,0.215,0.214,0.122,0.078,-,CALM,No
2022/11/02,22:40,0.155,0.140,0.224,0.214,0.215,0.123,0.078,west-southwest,0.7,No
2022/11/02,22:50,0.156,0.141,0.224,0.213,0.215,0.122,0.078,-,CALM,No
2022/11/02,23:00,0.154,0.140,0.224,0.213,0.215,0.122,0.079,west,0.8,No
2022/11/02,23:10,0.155,0.141,0.224,0.214,0.215,0.123,0.079,-,CALM,No
2022/11/02,23:20,0.155,0.140,0.225,0.215,0.214,0.122,0.078,west-southwest,0.7,No
2022/11/02,23:30,0.155,0.140,0.223,0.214,0.215,0.123,0.078,west,0.9,No
2022/11/02,23:40,0.155,0.141,0.224,0.216,0.215,0.122,0.079,west-southwest,0.6,No
2022/11/02,23:50,0.155,0.141,0.224,0.214,0.215,0.123,0.078,west-southwest,0.7,No
